This is the latest recevied weather packets stored in our database for station/object IU3OVK-13. If no packets are shown the sender has not sent any weather packets the latest 10 day(s).
| Time | Temp. | Humidity | Pressure | Rain* | Wind** | Luminosity | Snow |
|---|---|---|---|---|---|---|---|
| 1788522402 | 33.89° C | 84% | 1012.9 hPa | - | - | - | - |
| 1788522100 | 36.11° C | 81% | 1010.8 hPa | - | - | - | - |
| 1788521317 | 34.44° C | 78% | 1015.9 hPa | - | - | - | - |
| 1788520696 | 38.89° C | 70% | 1014.8 hPa | - | - | - | - |
| 1788520076 | 43.33° C | 64% | 988.2 hPa | - | - | - | - |
| 1788519456 | 42.78° C | 63% | 977.5 hPa | - | - | - | - |
| 1788518836 | 43.33° C | 64% | 988 hPa | - | - | - | - |
| 1788518216 | 43.33° C | 64% | 985.9 hPa | - | - | - | - |
| 1788516975 | 44.44° C | 63% | 970.7 hPa | - | - | - | - |
| 1788515735 | 43.89° C | 65% | 978.3 hPa | - | - | - | - |
| 1788515115 | 40.56° C | 70% | 1003.5 hPa | - | - | - | - |
| 1788514494 | 45° C | 66% | 976.9 hPa | - | - | - | - |
| 1788513874 | 41.67° C | 70% | 1001 hPa | - | - | - | - |
| 1788513254 | 42.78° C | 67% | 978.4 hPa | - | - | - | - |
| 1788512634 | 45° C | 67% | 979 hPa | - | - | - | - |
| 1788512014 | 42.22° C | 71% | 992.5 hPa | - | - | - | - |
| 1788510773 | 39.44° C | 75% | 1005 hPa | - | - | - | - |
| 1788508913 | 40° C | 77% | 994.2 hPa | - | - | - | - |
| 1788508293 | 38.89° C | 82% | 1005.7 hPa | - | - | - | - |
| 1788507672 | 41.11° C | 82% | 998.5 hPa | - | - | - | - |
| 1788507052 | 37.78° C | 91% | 1008.7 hPa | - | - | - | - |
| 1788506432 | 36.67° C | 94% | 1010.1 hPa | - | - | - | - |
| 1788505812 | 35.56° C | 99% | 1011.6 hPa | - | - | - | - |
| 1788505192 | 35.56° C | 99% | 1012.2 hPa | - | - | - | - |
| 1788504572 | 32.22° C | 99% | 1012.9 hPa | - | - | - | - |
* Rain since midnight (hover to see other rain measurements)
** Current wind speed in m/s (hover to see current wind gust speed)